Weather Roundup
Issued by NWS Springfield, MO

Home | Current Version | Previous Version | Text Only | Print | Product List | Glossary On
Versions: 1 2 3 4 5 6 7 8 9 10 11 12 13 14 15 16 17 18 19 20 21 22 23 24 25 26 27 28 29 30 31 32 33 34 35 36 37 38 39 40 41 42 43 44 45 46 47 48 49 50
868
NZUS99 KSGF 231057
HRRSGF

HOURLY WEATHER
NATIONAL WEATHER SERVICE SPRINGFIELD MO
600 AM CDT FRI JUN 23 2017

......SGF CWA......

CITY           SKY/WX    TMP DP  RH WIND       PRES   REMARKS
SPRINGFIELD    PTCLDY    70  70 100 SE3       29.70S
JOPLIN         CLEAR     73  72  96 S6        29.71R
WEST PLAINS    CLOUDY    74  73  97 N6        29.73R
ROLLA          CLOUDY    70  70 100 W3        29.72R

......SURROUNDING SGF CWA......

CITY           SKY/WX    TMP DP  RH WIND       PRES   REMARKS
CHANUTE        CLEAR     74  71  91 SW6       29.69S
PARSONS        CLEAR     70  69  97 CALM      29.71R
COFFEYVILLE    CLEAR     72  72 100 CALM      29.70R
EMPORIA        MOCLDY    72  71  97 N5        29.72R
ROGERS AR      FOG       68  68 100 CALM      29.73S VSB 1
HARRISON AR    FOG       70  70 100 W3        29.72R VSB 1/4

......KANSAS AND MISSOURI......

CITY           SKY/WX    TMP DP  RH WIND       PRES   REMARKS
KANSAS CTY INT MOCLDY    72  66  81 NE16      29.75S
DOWNTOWN KC    CLOUDY    76  67  73 NE18G25   29.72R
SEDALIA        PTCLDY    73  73 100 CALM      29.71S
ST JOSEPH      CLOUDY    71  64  78 N13       29.77R
ST LOUIS       CLOUDY    78  72  81 SW7       29.68F
WICHITA        PTCLDY    73  66  78 NW13      29.78R
TOPEKA         CLOUDY    74  67  78 N15G26    29.76R
OLATHE         CLOUDY    75  72  90 N12       29.74R

......TENNESSEE......

CITY           SKY/WX    TMP DP  RH WIND       PRES   REMARKS
MEMPHIS        LGT RAIN  76  74  93 S16G25    29.66F FOG
NASHVILLE      MOCLDY    77  71  82 S13       29.85R

......ARKANSAS.......

CITY           SKY/WX    TMP DP  RH WIND       PRES   REMARKS
FAYETTEVILLE   PTCLDY    66  66 100 S5        29.73R
FT SMITH       MOCLDY    74  73  97 W6        29.69R FOG
LITTLE ROCK    CLOUDY    76  76 100 W9        29.64R

......OKLAHOMA.......

CITY           SKY/WX    TMP DP  RH WIND       PRES   REMARKS
TULSA          PTCLDY    75  74  96 S5        29.69S
PONCA CITY     CLEAR     73  70  90 NW5       29.74R
MCALESTER      CLEAR     73  71  93 CALM      29.73R
OKLAHOMA CITY  CLOUDY    71  69  93 SW3       29.76R

......IOWA............

CITY           SKY/WX    TMP DP  RH WIND       PRES   REMARKS
DES MOINES     NOT AVBL
QUAD CITIES    MOCLDY    69  65  86 NE9       29.70R

......ILLINOIS........

CITY           SKY/WX    TMP DP  RH WIND       PRES   REMARKS
QUINCY         LGT RAIN  73  70  88 NW14G25   29.70R
CHICAGO        TSTM      68  65  90 NW13      29.66R




USA.gov is the U.S. government's official web portal to all federal, state and local government web resources and services.